FW2068 Weather Reports


Display with metric or nautical units.
time (UTC)temp
F
wind
direction
speed
MPH
gust
MPH
rain 1hr
in
rain 24hr
in
rain mn
in
humidity
%
barometer
mb
20260904204042 98 123 6.0 10.0 0.00 0.00 0.00 47 1012.2
20260904203538 96 214 0.0 10.0 0.00 0.00 0.00 49 1012.1
20260904203034 96 192 5.0 11.0 0.00 0.00 0.00 48 1012.3
20260904202530 96 178 4.0 5.0 0.00 0.00 0.00 49 1012.4
20260904202026 96 125 5.0 14.0 0.00 0.00 0.00 49 1012.4
20260904201521 96 178 4.0 5.0 0.00 0.00 0.00 50 1012.3
20260904201016 96 184 6.0 13.0 0.00 0.00 0.00 48 1012.4
20260904200514 95 150 4.0 9.0 0.00 0.00 0.00 51 1012.6
20260904200010 97 152 6.0 14.0 0.00 0.00 0.00 50 1012.7
20260904195509 96 167 9.0 10.0 0.00 0.00 0.00 51 1012.6
20260904195008 95 181 3.0 12.0 0.00 0.00 0.00 51 1012.7
20260904194503 95 171 2.0 6.0 0.00 0.00 0.00 52 1012.8
20260904193958 95 166 3.0 9.0 0.00 0.00 0.00 51 1013.0
20260904193453 96 180 4.0 9.0 0.00 0.00 0.00 49 1013.0
20260904192949 96 152 5.0 9.0 0.00 0.00 0.00 50 1013.1
20260904192449 96 167 8.0 9.0 0.00 0.00 0.00 49 1013.1
20260904191945 95 212 3.0 10.0 0.00 0.00 0.00 50 1013.0
20260904191441 96 173 5.0 9.0 0.00 0.00 0.00 51 1013.3
20260904190938 95 158 2.0 9.0 0.00 0.00 0.00 50 1013.2
20260904190432 95 153 9.0 17.0 0.00 0.00 0.00 52 1013.3
20260904185928 94 189 5.0 10.0 0.00 0.00 0.00 52 1013.3
20260904185424 95 160 4.0 9.0 0.00 0.00 0.00 50 1013.4
20260904184924 94 151 10.0 15.0 0.00 0.00 0.00 52 1013.4
20260904184419 94 136 8.0 16.0 0.00 0.00 0.00 53 1013.3
20260904183914 95 170 7.0 10.0 0.00 0.00 0.00 50 1013.6
20260904183410 94 154 8.0 8.0 0.00 0.00 0.00 51 1013.7
20260904182906 94 145 4.0 10.0 0.00 0.00 0.00 52 1013.6
20260904182406 94 175 5.0 11.0 0.00 0.00 0.00 51 1013.7
20260904181900 94 170 5.0 11.0 0.00 0.00 0.00 50 1014.1
20260904181355 94 171 1.0 7.0 0.00 0.00 0.00 53 1013.9
20260904180851 95 188 4.0 7.0 0.00 0.00 0.00 53 1013.9
20260904180346 94 126 3.0 11.0 0.00 0.00 0.00 53 1014.3
20260904175845 94 107 2.0 9.0 0.00 0.00 0.00 50 1014.1
20260904175345 94 162 12.0 13.0 0.00 0.00 0.00 51 1014.3
20260904174844 93 208 4.0 9.0 0.00 0.00 0.00 51 1014.3
20260904174340 94 166 6.0 10.0 0.00 0.00 0.00 52 1014.4
20260904173836 93 262 2.0 8.0 0.00 0.00 0.00 52 1014.5
20260904173331 92 147 8.0 13.0 0.00 0.00 0.00 55 1014.4
20260904172827 93 149 5.0 6.0 0.00 0.00 0.00 56 1014.7
20260904172326 92 159 8.0 8.0 0.00 0.00 0.00 58 1014.6
20260904171821 92 205 5.0 9.0 0.00 0.00 0.00 57 1014.7
20260904171317 91 209 4.0 5.0 0.00 0.00 0.00 61 1014.7
20260904170813 91 86 4.0 11.0 0.00 0.00 0.00 61 1014.9
20260904170308 91 168 6.0 9.0 0.00 0.00 0.00 62 1014.7
20260904165809 91 163 3.0 8.0 0.00 0.00 0.00 64 1015.0
20260904165307 90 185 5.0 6.0 0.00 0.00 0.00 62 1015.0
20260904164802 91 188 9.0 13.0 0.00 0.00 0.00 63 1014.8
20260904164257 89 160 4.0 7.0 0.00 0.00 0.00 65 1014.9
20260904163753 90 139 13.0 13.0 0.00 0.00 0.00 64 1015.2
20260904163248 90 158 6.0 13.0 0.00 0.00 0.00 64 1015.0
20260904162747 90 130 8.0 12.0 0.00 0.00 0.00 66 1015.1
20260904162243 89 155 5.0 9.0 0.00 0.00 0.00 66 1015.2
20260904161738 90 271 5.0 9.0 0.00 0.00 0.00 65 1015.0
20260904161233 89 156 4.0 5.0 0.00 0.00 0.00 66 1015.1
20260904160728 88 156 8.0 11.0 0.00 0.00 0.00 67 1015.0
20260904160224 88 153 6.0 7.0 0.00 0.00 0.00 68 1015.1
20260904155723 88 231 2.0 7.0 0.00 0.00 0.00 67 1014.9
20260904155222 88 186 4.0 9.0 0.00 0.00 0.00 66 1015.2
20260904154721 87 196 2.0 8.0 0.00 0.00 0.00 68 1015.0
20260904154216 87 183 3.0 9.0 0.00 0.00 0.00 68 1015.0
20260904153711 87 202 4.0 6.0 0.00 0.00 0.00 70 1015.0
20260904153207 87 187 5.0 7.0 0.00 0.00 0.00 70 1014.8
20260904152703 87 236 11.0 11.0 0.00 0.00 0.00 71 1014.8
20260904152158 86 163 6.0 10.0 0.00 0.00 0.00 72 1015.1
20260904151653 87 178 3.0 9.0 0.00 0.00 0.00 73 1015.1
20260904151152 86 164 8.0 13.0 0.00 0.00 0.00 75 1015.0
20260904150648 86 169 7.0 15.0 0.00 0.00 0.00 76 1015.1
20260904150149 86 179 6.0 10.0 0.00 0.00 0.00 78 1014.8
20260904145647 84 170 5.0 10.0 0.00 0.00 0.00 78 1014.8
20260904145142 85 152 8.0 10.0 0.00 0.00 0.00 78 1015.0
20260904144638 85 209 4.0 8.0 0.00 0.00 0.00 78 1014.9
20260904144133 85 162 10.0 14.0 0.00 0.00 0.00 79 1015.0
20260904143629 84 192 5.0 9.0 0.00 0.00 0.00 79 1014.9
20260904143126 84 155 6.0 10.0 0.00 0.00 0.00 80 1015.0
20260904142622 83 170 6.0 13.0 0.00 0.00 0.00 82 1015.1
20260904142117 83 141 13.0 15.0 0.00 0.00 0.00 82 1015.1
20260904141612 83 133 8.0 11.0 0.00 0.00 0.00 83 1014.7
20260904141108 83 133 6.0 11.0 0.00 0.00 0.00 84 1014.9
20260904140604 83 147 8.0 8.0 0.00 0.00 0.00 84 1014.9
20260904135603 82 119 4.0 13.0 0.00 0.00 0.00 85 1014.8
20260904135059 81 140 9.0 10.0 0.00 0.00 0.00 86 1014.8
20260904134554 81 150 9.0 10.0 0.00 0.00 0.00 86 1014.8
20260904134048 81 159 7.0 7.0 0.00 0.00 0.00 86 1014.6
20260904133543 81 141 7.0 10.0 0.00 0.00 0.00 87 1014.7
20260904133040 80 140 8.0 12.0 0.00 0.00 0.00 88 1014.5
20260904132539 80 132 8.0 12.0 0.00 0.00 0.00 89 1014.4
20260904132039 79 157 6.0 10.0 0.00 0.00 0.00 89 1014.6
20260904131539 79 144 5.0 10.0 0.00 0.00 0.00 90 1014.6
20260904131034 79 159 8.0 10.0 0.00 0.00 0.00 90 1014.5
20260904130534 78 161 4.0 11.0 0.00 0.00 0.00 91 1014.6
20260904130029 78 147 6.0 8.0 0.00 0.00 0.00 91 1014.4
20260904125526 78 118 3.0 9.0 0.00 0.00 0.00 91 1014.4
20260904125020 78 120 4.0 9.0 0.00 0.00 0.00 92 1014.4
20260904124516 77 160 2.0 8.0 0.00 0.00 0.00 92 1014.5
20260904124011 77 149 4.0 8.0 0.00 0.00 0.00 92 1014.3
20260904123510 77 122 3.0 7.0 0.00 0.00 0.00 92 1014.5
20260904123007 77 131 2.0 6.0 0.00 0.00 0.00 92 1014.2
20260904122501 77 132 4.0 6.0 0.00 0.00 0.00 93 1014.1
20260904121955 77 106 3.0 5.0 0.00 0.00 0.00 93 1014.1
20260904121452 77 117 4.0 5.0 0.00 0.00 0.00 93 1014.1
20260904120948 77 124 3.0 9.0 0.00 0.00 0.00 93 1014.1
20260904120443 76 141 4.0 4.0 0.00 0.00 0.00 93 1014.1
20260904115938 76 142 3.0 6.0 0.00 0.00 0.00 93 1013.9
20260904115434 76 138 4.0 5.0 0.00 0.00 0.00 92 1013.9
20260904114933 76 135 3.0 7.0 0.00 0.00 0.00 92 1014.1
20260904114428 76 115 4.0 4.0 0.00 0.00 0.00 92 1014.1
20260904113924 76 115 3.0 5.0 0.00 0.00 0.00 92 1013.7
20260904113423 76 95 2.0 8.0 0.00 0.00 0.00 92 1013.7
20260904112922 76 128 2.0 9.0 0.00 0.00 0.00 92 1013.7
20260904112418 76 124 4.0 8.0 0.00 0.00 0.00 92 1013.7
20260904111914 76 151 2.0 5.0 0.00 0.00 0.00 92 1013.9
20260904111409 76 147 5.0 6.0 0.00 0.00 0.00 92 1013.7
20260904110905 75 125 4.0 5.0 0.00 0.00 0.00 91 1013.5
20260904110403 75 120 3.0 5.0 0.00 0.00 0.00 91 1013.9
20260904105859 75 138 6.0 6.0 0.00 0.00 0.00 91 1013.7
20260904105354 75 129 3.0 5.0 0.00 0.00 0.00 91 1013.7
20260904104849 75 116 3.0 5.0 0.00 0.00 0.00 91 1013.6
20260904104343 75 120 4.0 7.0 0.00 0.00 0.00 91 1013.5
20260904103840 75 143 2.0 4.0 0.00 0.00 0.00 91 1013.7
20260904103335 75 124 2.0 4.0 0.00 0.00 0.00 91 1013.5
20260904102831 75 138 2.0 3.0 0.00 0.00 0.00 91 1013.5
20260904102326 75 105 1.0 5.0 0.00 0.00 0.00 90 1013.5
20260904101822 75 100 2.0 4.0 0.00 0.00 0.00 90 1013.3
20260904101318 76 101 2.0 4.0 0.00 0.00 0.00 90 1013.2
20260904100814 76 125 2.0 4.0 0.00 0.00 0.00 90 1013.4
20260904100309 76 126 3.0 6.0 0.00 0.00 0.00 90 1013.3
20260904095804 76 102 2.0 3.0 0.00 0.00 0.00 90 1013.2
20260904095258 76 126 3.0 4.0 0.00 0.00 0.00 90 1013.1
20260904094754 76 137 3.0 5.0 0.00 0.00 0.00 89 1013.4
20260904094248 76 131 2.0 4.0 0.00 0.00 0.00 89 1013.3
20260904093745 77 99 4.0 5.0 0.00 0.00 0.00 89 1013.1
20260904093244 77 106 3.0 5.0 0.00 0.00 0.00 88 1013.2
20260904092740 77 131 4.0 8.0 0.00 0.00 0.00 88 1013.3
20260904092236 77 142 8.0 9.0 0.00 0.00 0.00 88 1013.1
20260904091733 77 132 6.0 9.0 0.00 0.00 0.00 88 1013.1
20260904091233 77 139 6.0 9.0 0.00 0.00 0.00 88 1013.1
20260904090728 77 112 3.0 6.0 0.00 0.00 0.00 88 1013.4
20260904090224 77 152 5.0 6.0 0.00 0.00 0.00 88 1013.2
20260904085718 77 144 5.0 7.0 0.00 0.00 0.00 87 1013.2
20260904085213 77 149 5.0 8.0 0.00 0.00 0.00 87 1013.2
20260904084708 77 141 5.0 8.0 0.00 0.00 0.00 87 1013.0
20260904084204 77 141 5.0 7.0 0.00 0.00 0.00 86 1013.3
20260904083700 77 107 2.0 8.0 0.00 0.00 0.00 86 1013.3
20260904083157 77 137 4.0 6.0 0.00 0.00 0.00 85 1013.1
20260904082651 77 142 5.0 6.0 0.00 0.00 0.00 85 1013.2
20260904082147 77 142 5.0 7.0 0.00 0.00 0.00 85 1013.1
20260904081642 77 150 7.0 7.0 0.00 0.00 0.00 85 1013.3
20260904081137 77 154 6.0 6.0 0.00 0.00 0.00 85 1013.2
20260904080633 77 148 4.0 5.0 0.00 0.00 0.00 84 1013.3
20260904080129 77 145 4.0 4.0 0.00 0.00 0.00 84 1013.2
20260904075625 77 128 3.0 6.0 0.00 0.00 0.00 84 1013.1
20260904075125 77 135 4.0 6.0 0.00 0.00 0.00 84 1013.0
20260904074625 77 154 4.0 6.0 0.00 0.00 0.00 83 1013.1
20260904074125 77 136 5.0 6.0 0.00 0.00 0.00 83 1013.2
20260904073620 77 137 4.0 6.0 0.00 0.00 0.00 83 1013.1
20260904073116 78 154 4.0 7.0 0.00 0.00 0.00 83 1013.0
20260904072611 78 154 5.0 6.0 0.00 0.00 0.00 83 1013.0
20260904072107 78 150 5.0 6.0 0.00 0.00 0.00 83 1013.1
20260904071602 78 140 6.0 7.0 0.00 0.00 0.00 83 1013.0
20260904071057 78 149 5.0 8.0 0.00 0.00 0.00 82 1013.1
20260904070555 78 159 4.0 7.0 0.00 0.00 0.00 82 1013.0
20260904070051 78 144 5.0 9.0 0.00 0.00 0.00 82 1013.2
20260904065546 78 161 6.0 7.0 0.00 0.00 0.00 82 1013.2
20260904065042 78 145 6.0 8.0 0.00 0.00 0.00 81 1013.3
20260904064539 78 164 6.0 6.0 0.00 0.00 0.00 82 1013.3
20260904064038 78 150 7.0 9.0 0.00 0.00 0.00 81 1013.4
20260904063535 78 152 7.0 9.0 0.00 0.00 0.00 81 1013.3
20260904063029 78 138 6.0 8.0 0.00 0.00 0.00 80 1013.2
20260904062525 78 152 6.0 8.0 0.00 0.00 0.00 80 1013.1
20260904062021 78 152 7.0 9.0 0.00 0.00 0.00 80 1013.2
20260904061516 78 135 6.0 9.0 0.00 0.00 0.00 80 1013.3
20260904061013 78 164 6.0 8.0 0.00 0.00 0.00 80 1013.2
20260904060509 78 149 7.0 8.0 0.00 0.00 0.00 80 1013.3
20260904060004 78 145 5.0 9.0 0.00 0.00 0.00 79 1013.3
20260904055459 78 149 5.0 9.0 0.00 0.00 0.00 79 1013.3
20260904054955 78 144 8.0 9.0 0.00 0.00 0.00 79 1013.2
20260904054450 78 153 6.0 7.0 0.00 0.00 0.00 79 1013.1
20260904053946 79 149 8.0 8.0 0.00 0.00 0.00 78 1013.1
20260904053445 79 162 6.0 9.0 0.00 0.00 0.00 78 1013.3
20260904052941 79 149 7.0 9.0 0.00 0.00 0.00 78 1013.2
20260904052437 79 179 7.0 9.0 0.00 0.00 0.00 78 1013.1
20260904051934 79 148 7.0 9.0 0.00 0.00 0.00 77 1012.9
20260904051430 79 155 6.0 6.0 0.00 0.00 0.00 78 1013.2
20260904050929 79 144 7.0 9.0 0.00 0.00 0.00 77 1013.3
20260904050425 79 140 5.0 9.0 0.00 0.00 0.00 77 1013.3
20260904045925 79 139 8.0 8.0 0.00 0.01 0.01 76 1013.4
20260904045421 79 155 8.0 10.0 0.00 0.01 0.01 76 1013.4
20260904044920 79 147 4.0 8.0 0.00 0.01 0.01 76 1013.1
20260904044417 79 140 4.0 7.0 0.00 0.01 0.01 76 1013.3
20260904043913 79 149 4.0 8.0 0.00 0.01 0.01 75 1013.4
20260904043409 79 164 5.0 6.0 0.00 0.01 0.01 76 1013.4
20260904042904 79 151 4.0 6.0 0.00 0.01 0.01 75 1013.4
20260904042400 79 162 7.0 8.0 0.00 0.01 0.01 75 1013.3
20260904041855 79 165 5.0 7.0 0.00 0.01 0.01 76 1013.4
20260904041351 79 162 5.0 6.0 0.00 0.01 0.01 76 1013.4
20260904040847 79 162 5.0 5.0 0.00 0.01 0.01 76 1013.3
20260904040342 80 140 4.0 5.0 0.00 0.01 0.01 75 1013.3
20260904035838 80 137 6.0 6.0 0.00 0.01 0.01 75 1013.3
20260904035334 80 155 4.0 8.0 0.00 0.01 0.01 74 1013.4
20260904034833 80 153 8.0 9.0 0.00 0.01 0.01 73 1013.5
20260904034328 80 154 4.0 7.0 0.00 0.01 0.01 73 1013.4
20260904033824 80 156 6.0 7.0 0.00 0.01 0.01 73 1013.5
20260904033320 80 150 4.0 5.0 0.00 0.01 0.01 73 1013.4
20260904032817 80 135 5.0 5.0 0.00 0.01 0.01 73 1013.3
20260904032316 80 160 4.0 6.0 0.00 0.01 0.01 73 1013.3
20260904031810 81 151 5.0 6.0 0.00 0.01 0.01 73 1013.3
20260904031306 81 164 5.0 9.0 0.00 0.01 0.01 73 1013.5
20260904030802 81 152 5.0 6.0 0.00 0.01 0.01 74 1013.3
20260904030257 81 155 6.0 9.0 0.00 0.01 0.01 73 1013.3
20260904025753 81 167 7.0 9.0 0.00 0.01 0.01 73 1013.3
20260904025248 81 159 6.0 9.0 0.00 0.01 0.01 72 1013.1
20260904024743 81 165 6.0 9.0 0.00 0.01 0.01 73 1013.2
20260904024239 82 141 10.0 11.0 0.00 0.01 0.01 73 1013.1
20260904023735 82 154 8.0 9.0 0.00 0.01 0.01 74 1013.1
20260904023231 82 154 9.0 10.0 0.00 0.01 0.01 74 1012.9
20260904022730 82 142 8.0 9.0 0.00 0.01 0.01 74 1012.8
20260904022228 82 160 4.0 8.0 0.00 0.01 0.01 74 1012.8
20260904021723 82 177 4.0 8.0 0.00 0.01 0.01 74 1012.7
20260904021218 82 167 3.0 6.0 0.00 0.01 0.01 74 1012.6
20260904020714 82 153 6.0 6.0 0.00 0.01 0.01 74 1012.5
20260904020213 82 176 3.0 6.0 0.00 0.01 0.01 73 1012.6
20260904015712 82 164 6.0 9.0 0.00 0.01 0.01 73 1012.6
20260904015207 83 164 7.0 10.0 0.00 0.01 0.01 72 1012.4
20260904014705 83 156 6.0 10.0 0.00 0.01 0.01 72 1012.3
20260904014200 83 153 4.0 9.0 0.00 0.01 0.01 72 1012.2
20260904013657 83 147 8.0 11.0 0.00 0.01 0.01 72 1012.2
20260904013152 83 161 7.0 9.0 0.00 0.01 0.01 72 1012.1
20260904012648 83 150 7.0 9.0 0.00 0.01 0.01 71 1012.0
20260904012147 84 157 9.0 12.0 0.00 0.01 0.01 70 1012.1
20260904011646 84 154 7.0 11.0 0.00 0.01 0.01 69 1011.8
20260904011142 84 151 8.0 10.0 0.00 0.01 0.01 69 1011.8
20260904010638 84 168 5.0 15.0 0.00 0.01 0.01 69 1012.0
20260904010134 84 165 9.0 10.0 0.00 0.01 0.01 69 1012.0
20260904005629 84 152 9.0 10.0 0.00 0.01 0.01 70 1011.9
20260904005125 85 156 7.0 13.0 0.00 0.01 0.01 71 1011.8
20260904004620 85 170 9.0 12.0 0.00 0.01 0.01 71 1011.8
20260904004120 85 156 6.0 12.0 0.00 0.01 0.01 71 1011.7
20260904003616 86 166 10.0 13.0 0.00 0.01 0.01 70 1011.7
20260904003112 86 158 6.0 11.0 0.00 0.01 0.01 70 1011.7
20260904002608 86 156 8.0 11.0 0.00 0.01 0.01 69 1011.7
20260904002108 86 120 4.0 12.0 0.00 0.01 0.01 68 1011.8
20260904001558 87 154 7.0 13.0 0.00 0.01 0.01 67 1011.7
20260904001056 87 140 6.0 13.0 0.00 0.01 0.01 67 1011.6
20260904000551 87 141 9.0 12.0 0.00 0.01 0.01 66 1011.5
20260904000047 87 149 11.0 15.0 0.00 0.01 0.01 67 1011.5
20260903235547 87 159 9.0 11.0 0.00 0.01 0.01 66 1011.7
20260903235043 87 139 10.0 13.0 0.00 0.01 0.01 66 1011.7
20260903234538 88 151 10.0 12.0 0.00 0.01 0.01 65 1011.7
20260903234033 88 139 7.0 10.0 0.00 0.01 0.01 64 1011.7
20260903233529 88 156 12.0 13.0 0.00 0.01 0.01 64 1011.6
20260903233025 89 123 7.0 16.0 0.00 0.01 0.01 63 1011.4
20260903232520 89 157 9.0 11.0 0.00 0.01 0.01 62 1011.4
20260903232015 89 159 7.0 10.0 0.00 0.01 0.01 60 1011.3
20260903231509 89 146 5.0 14.0 0.00 0.01 0.01 61 1011.5
20260903231004 89 159 9.0 16.0 0.00 0.01 0.01 59 1011.5
20260903230500 89 147 9.0 15.0 0.00 0.01 0.01 59 1011.4
20260903225956 89 151 7.0 13.0 0.00 0.01 0.01 60 1011.5
20260903225451 88 119 4.0 17.0 0.00 0.01 0.01 62 1011.4
20260903224948 88 155 9.0 15.0 0.00 0.01 0.01 62 1011.4
20260903224443 89 156 11.0 17.0 0.00 0.01 0.01 62 1011.4
20260903223939 89 164 7.0 15.0 0.00 0.01 0.01 63 1011.5
20260903223438 89 150 14.0 16.0 0.00 0.01 0.01 63 1011.3
20260903222937 90 119 3.0 10.0 0.00 0.01 0.01 62 1011.7
20260903222433 89 103 8.0 15.0 0.00 0.01 0.01 62 1011.5
20260903221932 89 135 12.0 14.0 0.00 0.01 0.01 63 1011.5
20260903221432 89 162 8.0 13.0 0.00 0.01 0.01 64 1011.5
20260903220929 89 151 10.0 15.0 0.00 0.01 0.01 63 1011.5
20260903220424 88 159 10.0 13.0 0.00 0.01 0.01 64 1011.6
20260903215921 89 121 4.0 14.0 0.00 0.01 0.01 64 1011.6
20260903215419 89 125 7.0 11.0 0.00 0.01 0.01 63 1011.7
20260903214917 89 173 6.0 8.0 0.00 0.01 0.01 64 1011.7
20260903214413 88 153 11.0 11.0 0.00 0.01 0.01 64 1011.8
20260903213912 88 133 6.0 11.0 0.00 0.01 0.01 64 1011.7
20260903213408 88 151 7.0 11.0 0.00 0.01 0.01 64 1011.9
20260903212904 89 153 5.0 7.0 0.00 0.01 0.01 64 1011.8
20260903212359 88 140 7.0 11.0 0.00 0.01 0.01 64 1011.9
20260903211858 89 150 4.0 14.0 0.00 0.01 0.01 63 1011.8
20260903211354 90 144 5.0 14.0 0.00 0.01 0.01 61 1012.0
20260903210851 89 151 5.0 9.0 0.00 0.01 0.01 61 1011.8
20260903210350 89 151 10.0 11.0 0.00 0.01 0.01 61 1012.2
20260903205850 89 166 12.0 14.0 0.00 0.01 0.01 62 1012.1
20260903205350 90 165 7.0 11.0 0.00 0.01 0.01 61 1012.0
20260903204845 89 177 6.0 9.0 0.00 0.01 0.01 63 1011.9
20260903204341 90 164 9.0 10.0 0.00 0.01 0.01 61 1012.1